SAMSAT-IONOSPHERE (RS7*)

Last updated on Mon Sep 15 2025 00:03:10 GMT+0000 (Coordinated Universal Time)

1 61784U 24199BB 25257.25415778 .00015154 00000+0 42377-3 0 9992 2 61784 97.3379 125.3963 0012931 199.9858 160.0882 15.36683279 94918
UTC large
Height (km)
Speed (km/s)
/
Latitude / Longitude
Inclination (degrees)
Orbital Period (minutes)
Azimuth
Elevation
Range (km)
Doppler Factor

Next 0 passes for location: London (51.5072 / 0.1276)

Sorry there are no passes over London.